Location: Unspecified
(42.7170°S, 0.0000°E)
Time: 02:51:12
(UTC+00:00)

N. Korean satellite - Pass Details

Date: 27 May 2019
Orbit: 455 x 510 km, 97.2° (Epoch: 19 June)

Event Time Altitude Azimuth Distance (km) Brightness Sun altitude
Exits shadow 17:05:13 - 142° (SE) 2,271 9.4 -5.3°
Reaches altitude 10° 17:07:02 10° 125° (SE) 1,740 8.7 -5.6°
Maximum altitude 17:09:16 15° 88° (E) 1,449 8.4 -6.0°
Drops below altitude 10° 17:11:28 10° 52° (NE) 1,736 9.1 -6.4°
Sets 17:14:18 0° 28° (NNE) 2,616 10.2 -6.9°
